Regional Weather Roundup
Issued by NWS

Home | Current Version | Previous Version | Text Only | Print | Product List | Glossary On
Versions: 1 2 3 4 5 6 7 8 9 10 11 12 13 14 15 16 17 18 19 20 21 22 23 24 25 26 27 28 29 30 31 32 33 34 35 36 37 38 39 40 41 42 43 44 45 46 47 48 49 50
545
ASUS43 KDTX 241610
RWRMI
MICHIGAN HOURLY REGIONAL WEATHER ROUNDUP
NATIONAL WEATHER SERVICE DETROIT/PONTIAC MI
1200 PM EDT SUN SEP 24 2017

NOTE: "FAIR" INDICATES FEW OR NO CLOUDS BELOW 12,000 FEET WITH NO
SIGNIFICANT WEATHER AND/OR OBSTRUCTION TO VISIBILITY.

MIZ047>049-052>055-059>063-066>070-074>076-081>083-241700-
SOUTHEAST LOWER MICHIGAN

CITY           SKY/WX    TMP DP  RH WIND       PRES   REMARKS
ADRIAN         SUNNY     85  61  44 SE8       30.16F
ALMA           SUNNY     87  54  32 S7        30.15S
ANN ARBOR      SUNNY     86  62  44 SE7       30.16F
BAD AXE        SUNNY     85  65  50 S3        30.17S
CARO           SUNNY     87  63  45 S6        30.15F
DETROIT CITY   SUNNY     84  63  49 SE6       30.16F
DETROIT        SUNNY     84  65  52 VRB5      30.17F
FLINT          SUNNY     87  60  40 SE7       30.16S
GROSSE ILE     SUNNY     80  69  69 S3        30.16S
HILLSDALE      PTSUNNY   84  59  42 SE7       30.16F
HOWELL         SUNNY     86  58  37 S3        30.17S

CITY           SKY/WX    TMP DP  RH WIND       PRES   REMARKS
JACKSON        SUNNY     86  59  39 VRB6      30.16S
LAMBERTVILLE   SUNNY     85  63  46 SE6       30.15F
LANSING        SUNNY     86  59  39 E5        30.16S
LAPEER         FAIR      85  61  43 S6        30.18S
MASON          SUNNY     86  60  40 SE5       30.16S
MONROE         SUNNY     83  64  52 SE6       30.15F
MT. CLEMENS    SUNNY     82  66  56 S6        30.16S
PONTIAC        SUNNY     84  61  45 SE8       30.17S
PORT HOPE        N/A     76  68  76 E8        30.14S
PORT HURON     SUNNY     86  66  51 S7        30.17F
TRI CITIES     SUNNY     86  63  45 VRB7      30.15F
MIDLAND        FAIR      84  62  46 SE3       30.14S
TROY           SUNNY     85  60  41 SE5       30.18S
SAGINAW HB     SUNNY     86  61  42 S8        30.14S
$$
MIZ043>046-050>051-056>058-064>065-071>073-077>080-241700-
SOUTHWEST LOWER MICHIGAN

CITY           SKY/WX    TMP DP  RH WIND       PRES   REMARKS
BATTLE CREEK   SUNNY     87  60  40 SE8       30.15F
BENTON HARBOR  SUNNY     86  60  41 SE8       30.11F
BIG RAPIDS     SUNNY     84  60  43 CALM      30.13F
COLDWATER      SUNNY     85  54  34 SE10      30.15S
FREMONT        FAIR      86  59  40 SE3       30.11F
HOLLAND        SUNNY     88  64  44 S7        30.12S
GRAND RAPIDS   MOSUNNY   88  61  40 S12       30.13S
IONIA          FAIR      89  56  32 SW10      30.13S
KALAMAZOO      SUNNY     86  58  38 S7        30.14S
LUDINGTON      SUNNY     85  63  47 S7        30.10F
MARSHALL       SUNNY     86  59  40 SE6       30.14F
MOUNT PLEASANT SUNNY     88  57  35 S7        30.13F
MUSKEGON       MOSUNNY   86  62  44 S6        30.11F
SOUTH HAVEN    SUNNY     87  60  39 S5        30.11S
$$
MIZ016>042-241700-
NORTHERN LOWER MICHIGAN

CITY           SKY/WX    TMP DP  RH WIND       PRES   REMARKS
ALPENA         SUNNY     86  67  52 SW3       30.13F
BELLAIRE       SUNNY     84  63  48 S3        30.11F
CADILLAC       SUNNY     86  60  41 SW5       30.14F
CHARLEVOIX     SUNNY     86  64  47 S7        30.13F
FRANKFORT      SUNNY     86  62  43 SW9       30.10S
GAYLORD        SUNNY     83  62  49 W8        30.15F
GRAYLING       SUNNY     84  62  47 SW5       30.16S
HARBOR SPRINGS SUNNY     84  64  49 SW5       30.11S
HOUGHTON LAKE  SUNNY     84  60  44 VRB3      30.16S
MANISTEE       SUNNY     85  65  51 S7        30.10F
OSCODA         SUNNY     86  60  41 SW14      30.14S
PELLSTON       SUNNY     87  66  49 VRB5      30.11S
ROGERS CITY    SUNNY     86  67  53 W3        30.13S
TRAVERSE CITY  SUNNY     87  62  43 VRB3      30.09F
$$
MIZ007>008-015-241700-
EASTERN UPPER MICHIGAN

CITY           SKY/WX    TMP DP  RH WIND       PRES   REMARKS
KINROSS        SUNNY     83  67  58 VRB7      30.11S
MACKINAC ISLAN SUNNY     81  63  54 SW5       30.11S
NEWBERRY       SUNNY     78  70  75 S14       30.09S
S. S. MARIE    SUNNY     80  69  69 SE6       30.09S
MUNISING         N/A     84  70  62 S8        30.04S
$$
MIZ004>006-011>014-085-241700-
CENTRAL UPPER MICHIGAN

CITY           SKY/WX    TMP DP  RH WIND       PRES   REMARKS
MANISTIQUE     SUNNY     73  67  81 S9        30.08F
ESCANABA       SUNNY     76  68  76 S8        30.07S
MENOMINEE      SUNNY     82  68  62 SW7       30.07S
SAWYER-GWINN   SUNNY     81  68  65 SW9       30.06F
$$
MIZ001>003-009>011-084-241700-
WESTERN UPPER MICHIGAN

CITY           SKY/WX    TMP DP  RH WIND       PRES   REMARKS
IRON MOUNTAIN  SUNNY     84  66  54 S7        30.05F
HOUGHTON       SUNNY     81  65  58 S10       30.00S
COPPER HARBOR    N/A     82  65  56 W9        29.98R
IRONWOOD       SUNNY     82  66  58 S8        30.00S
$$

ABBREVIATIONS USED IN REMARKS
   TC - TEMPERATURE IN CELSIUS
  WCI - WIND CHILL INDEX
   HX - HEAT INDEX
  VSB - VISIBILITY





USA.gov is the U.S. government's official web portal to all federal, state and local government web resources and services.